Location: Jackson
(42.2460°N, 84.4010°W)
Time: 07:57:52
(UTC-05:00)

ISS - Pass Details

Date: 22 January 2026
Orbit: 413 x 428 km, 51.6° (Epoch: 13 February)

Event Time Altitude Azimuth Distance (km) Brightness Sun altitude
Rises 19:40:26 0° 306° (NW) 2,368 0.8 -22.2°
Reaches altitude 10° 19:42:48 10° 322° (NW) 1,506 -0.6 -22.7°
Enters shadow 19:44:02 17° 338° (NNW) 1,147 -1.4 -22.9°
